Location: Fort Worth, Tx
(32.7431°N, 97.3695°W)
Time: 11:14:49
(UTC-04:00)

A-11 Canister half - Pass Details

Date: 14 August 2024
Orbit: 1524 x 1684 km, 47.3° (Epoch: 13 September)

Event Time Altitude Azimuth Distance (km) Brightness Sun altitude
Rises 02:27:57 0° 270° (W) 4,910 11.7 -43.1°
Reaches altitude 10° 02:31:26 10° 277° (W) 3,934 11.2 -43.1°
Maximum altitude 02:40:47 40° 345° (NNW) 2,315 10.1 -43.0°
Drops below altitude 10° 02:50:09 10° 52° (NE) 3,931 11.5 -42.9°
Sets 02:53:38 0° 60° (ENE) 4,905 12.0 -42.8°
